Location: Lower Kingswood
(51.2667°N, 0.2167°W)
Time: 04:01:19
(UTC+00:00)

Cosmos 2026 Rocket - Pass Details

Date: 26 September 2023
Orbit: 939 x 999 km, 82.9° (Epoch: 29 November)

Event Time Altitude Azimuth Distance (km) Brightness Sun altitude
Exits shadow 02:41:46 83° 243° (WSW) 975 3.8 -28.5°
Maximum altitude 02:41:56 84° 280° (W) 972 3.8 -28.5°
Drops below altitude 10° 02:48:06 10° 9° (N) 2,687 6.9 -27.8°
Sets 02:50:35 0° 10° (N) 3,630 7.7 -27.4°
